[[{"header":{"parameterUnit":"m.s-1","parameterCategory":2,"la1":30.2991,"la2":30.254,"lo1":-89.0895,"lo2":-89.0444,"dy":0.0017,"dx":0.0017,"nx":28,"ny":28,"refTime":"2025-06-22T03:00:00:Z","depth":"0","parameterNumber":2,"parameterNumberName":"U-component_of_CURRENTS"},"data":[0,0,0,0,0,0,0,0,0,0,0,0,0,0,0,0,0,0,0,0,0,0,0,0,0,0,0,0,0,0,0,0,0,0,0,0,0,0,0,0,0,0,0,0,0,0,0,0,0,0,0,0,0,0,0,0,0,0,0.3806,0.3807,0,0.3888,0.3889,0.389,0.3886,0.3885,0.3884,0.3883,0.3965,0.3969,0.3972,0,0,0,0,0,0,0,0,0,0,0,0,0,0.3692,0.3694,0.3806,0.3807,0.3808,0.3888,0.3889,0.389,0.3887,0.3885,0.3884,0.3883,0.3964,0.3968,0.3972,0,0,0,0,0,0,0,0,0,0,0,0,0,0.3754,0.3694,0.3806,0.3817,0.3818,0.3888,0.3889,0.389,0.3887,0.3885,0.3884,0.3882,0.3963,0.3968,0.3973,0.4035,0,0,0.3987,0.3989,0,0,0,0,0,0,0,0,0.375,0.3758,0.3814,0.3816,0.3818,0.3876,0.3879,0.3939,0.3887,0.386,0.3883,0.3881,0.3937,0.3944,0.3962,0.4038,0.4042,0.3988,0.3991,0.3993,0.3994,0,0,0,0,0,0,0,0.3746,0.3754,0.3838,0.3815,0.3818,0.3833,0.384,0.3891,0.3906,0.3862,0.3862,0.3873,0.3938,0.3957,0.3964,0.4043,0.3987,0.3992,0.3995,0.3997,0.4128,0.4129,0,0,0,0,0,0,0.3737,0.3751,0.3835,0.384,0.378,0.3837,0.3844,0.3858,0.3906,0.3911,0.3875,0.3873,0.395,0.3958,0.3967,0.404,0.3993,0.3997,0.4,0.4128,0.4128,0.4129,0,0,0,0,0,0,0.3735,0.3744,0.3832,0.3797,0.381,0.384,0.3857,0.3861,0.3878,0.3915,0.392,0.3887,0.3949,0.396,0.3999,0.4043,0.3999,0.4004,0.4127,0.4128,0.4129,0.4189,0,0,0,0,0,0,0.3731,0.3743,0.3754,0.3797,0.3811,0.3878,0.3859,0.3864,0.3888,0.3887,0.3928,0.3934,0.3949,0.3992,0.4004,0.4049,0.4007,0.4126,0.4127,0.4128,0.4186,0.4192,0.4197,0,0,0,0,0,0.3727,0.3751,0.3754,0.3764,0.3824,0.388,0.3889,0.3904,0.389,0.3911,0.3921,0.3933,0.4007,0.3996,0.401,0.4058,0.4125,0.4127,0.4128,0.4184,0.4191,0.4197,0,0,0,0,0,0,0.3706,0.3755,0.3758,0.3794,0.3835,0.3879,0.3904,0.391,0.3937,0.3932,0.3949,0.3957,0.4009,0.4018,0.4005,0.4093,0.4066,0.4071,0.4104,0.4111,0.4116,0.4127,0.4011,0,0,0,0,0,0.3708,0.3739,0.3784,0.3814,0.3836,0.387,0.3893,0.3906,0.3935,0.3945,0.3975,0.3998,0.403,0.4053,0.4086,0.4144,0.4191,0.4177,0.4183,0.4187,0.4202,0.4315,0.4333,0.4134,0.4133,0.4133,0,0,0.371,0.3739,0.3758,0.3812,0.3844,0.389,0.388,0.3925,0.3961,0.3953,0.4011,0.4026,0.4047,0.4104,0.4128,0.4116,0.4267,0.4189,0.4193,0.4206,0.4319,0.4339,0.4356,0.4134,0.4134,0.4134,0,0,0.373,0.3757,0.3788,0.3827,0.3878,0.3908,0.3921,0.3974,0.3996,0.4047,0.4047,0.4078,0.4136,0.4162,0.4179,0.4233,0.4291,0.4244,0.4292,0.4401,0.442,0.4436,0.4523,0.4547,0.4249,0.4249,0.4249,0,0.3726,0.3771,0.3807,0.3848,0.3884,0.3916,0.396,0.4001,0.4057,0.4091,0.4067,0.4162,0.4165,0.4248,0.4247,0.4251,0.4319,0.427,0.4413,0.443,0.4447,0.4531,0.4557,0.4252,0.4252,0.4251,0.4251,0,0.3773,0.3807,0.3834,0.3896,0.3942,0.3988,0.4047,0.4095,0.4117,0.4157,0.424,0.4254,0.4312,0.4313,0.4291,0.4409,0.4423,0.441,0.4406,0.4471,0.4554,0.4581,0.4257,0.4255,0.4255,0.4254,0,0,0.3749,0.3846,0.385,0.3884,0.3969,0.4011,0.4089,0.4172,0.4231,0.4284,0.4375,0.4401,0.4424,0.4441,0.4444,0.4513,0.4658,0.4509,0.4513,0.461,0.4912,0.4855,0.4878,0.4693,0.4698,0.4701,0.4925,0,0.3765,0.3839,0.3891,0.3965,0.4009,0.4077,0.415,0.4231,0.4298,0.4399,0.4444,0.4529,0.4475,0.4514,0.4579,0.4647,0.473,0.4599,0.482,0.4826,0.4782,0.4907,0.4694,0.4871,0.4951,0.4955,0.4958,0,0.3777,0.3828,0.3901,0.4001,0.4028,0.4081,0.4206,0.4284,0.443,0.4486,0.459,0.465,0.4765,0.4702,0.489,0.4822,0.4872,0.4911,0.4921,0.4867,0.4819,0.4816,0.4915,0.4769,0.4998,0.4995,0.4992,0,0.3731,0.3826,0.3882,0.3918,0.4044,0.409,0.4165,0.4303,0.4393,0.4568,0.4663,0.4804,0.4895,0.5003,0.5072,0.5015,0.528,0.5214,0.5217,0.5213,0.5071,0.5046,0.5065,0.5362,0.5362,0.5361,0.5361,0,0.3723,0.3764,0.386,0.3896,0.3966,0.4068,0.4172,0.4271,0.4444,0.4578,0.4714,0.4853,0.498,0.5136,0.5174,0.5296,0.538,0.5266,0.5287,0.5082,0.5057,0.4951,0.4885,0.537,0.5368,0.5366,0.5365,0,0.3672,0.3736,0.3802,0.3917,0.3947,0.4003,0.4162,0.4267,0.4427,0.4618,0.4694,0.4937,0.515,0.5273,0.5457,0.5427,0.5391,0.5551,0.5289,0.5273,0.5086,0.503,0.4956,0.4804,0.56,0.56,0.56,0,0.3666,0.3691,0.379,0.3838,0.389,0.398,0.407,0.4232,0.4346,0.4665,0.4764,0.5045,0.5213,0.5477,0.55,0.5611,0.5432,0.545,0.5277,0.5087,0.5042,0.4848,0.4709,0.512,0.5116,0.5113,0.511,0,0.366,0.3684,0.3752,0.3816,0.3897,0.3968,0.4091,0.416,0.4388,0.4553,0.4788,0.4962,0.5245,0.528,0.5432,0.5449,0.5172,0.5389,0.5272,0.4749,0.446,0.4317,0.4952,0.5083,0.5086,0.5088,0.5089,0.509,0.3664,0.3684,0.3755,0.3807,0.3881,0.392,0.3932,0.4077,0.4207,0.4392,0.4665,0.483,0.5022,0.5207,0.5204,0.5034,0.5015,0.4858,0.4838,0.4683,0.4422,0.4991,0.5085,0.5087,0.509,0.5092,0.5093,0,0.3658,0.3682,0.3745,0.3781,0.3801,0.3852,0.3925,0.3906,0.3965,0.4204,0.4367,0.4539,0.4618,0.4722,0.4687,0.4507,0.4271,0.437,0.4031,0.3945,0.4538,0.4398,0.4247,0.4247,0.4247,0.4247,0.4247,0.4248,0.3666,0.3692,0.3694,0.3674,0.3687,0.3623,0.3612,0.3603,0.3681,0.3746,0.382,0.3992,0.4266,0.4399,0.4237,0.4113,0.3769,0.3606,0.3606,0.4009,0.405,0.4089,0.3941,0.3696,0.3695,0.2812,0.2805,0.28]},{"header":{"parameterUnit":"m.s-1","parameterCategory":2,"la1":30.2991,"la2":30.254,"lo1":-89.0895,"lo2":-89.0444,"dy":0.0017,"dx":0.0017,"nx":28,"ny":28,"refTime":"2025-06-22T03:00:00:Z","depth":"0","parameterNumber":3,"parameterNumberName":"V-component_of_CURRENTS"},"data":[0,0,0,0,0,0,0,0,0,0,0,0,0,0,0,0,0,0,0,0,0,0,0,0,0,0,0,0,0,0,0,0,0,0,0,0,0,0,0,0,0,0,0,0,0,0,0,0,0,0,0,0,0,0,0,0,0,0,0.0136,0.0135,0,0.0071,0.007,0.0069,0.0018,0.0018,0.0017,0.0017,-0.0066,-0.0068,-0.007,0,0,0,0,0,0,0,0,0,0,0,0,0,0.0165,0.0165,0.0136,0.0135,0.0135,0.0071,0.007,0.0069,0.0018,0.0018,0.0017,0.0017,-0.0066,-0.0068,-0.007,0,0,0,0,0,0,0,0,0,0,0,0,0,0.013,0.0165,0.0136,0.0103,0.01,0.0071,0.007,0.0068,0.0018,0.0018,0.0017,0.0017,-0.0065,-0.0068,-0.0071,-0.0079,0,0,-0.008,-0.0081,0,0,0,0,0,0,0,0,0.0132,0.0128,0.0108,0.0105,0.0101,0.0054,0.005,0.0019,0.0018,0.0047,0.0017,0.0016,-0.0026,-0.0032,-0.0046,-0.0083,-0.0087,-0.008,-0.0082,-0.0083,-0.0084,0,0,0,0,0,0,0,0.0134,0.0131,0.0108,0.0108,0.0104,0.0074,0.0069,0.0043,0.0012,0.0044,0.0041,0.0037,-0.0029,-0.0043,-0.0049,-0.0088,-0.008,-0.0082,-0.0084,-0.0085,-0.0138,-0.0138,0,0,0,0,0,0,0.015,0.0133,0.011,0.0106,0.0118,0.0075,0.0068,0.0068,0.0012,0.0004,0.0038,0.0035,-0.0038,-0.0045,-0.0052,-0.0038,-0.0083,-0.0086,-0.0087,-0.0139,-0.0138,-0.0138,0,0,0,0,0,0,0.0151,0.0149,0.0113,0.012,0.0113,0.0075,0.0074,0.0067,0.0057,0.0008,-0.0001,0.0036,-0.0039,-0.0048,-0.0066,-0.0042,-0.0087,-0.009,-0.0139,-0.0139,-0.0138,-0.0027,0,0,0,0,0,0,0.0152,0.0149,0.0153,0.0121,0.0114,0.0111,0.0075,0.0066,0.0056,0.0052,0.0004,-0.0005,-0.004,-0.0061,-0.0069,-0.0047,-0.0092,-0.014,-0.0139,-0.0138,-0.0031,-0.0023,-0.0015,0,0,0,0,0,0.0153,0.017,0.0153,0.015,0.012,0.0112,0.0106,0.0074,0.0057,0.0061,0.0026,-0.0003,-0.0063,-0.0063,-0.0072,-0.005,-0.014,-0.0139,-0.0138,-0.0034,-0.0024,-0.0016,0,0,0,0,0,0,0.0187,0.0166,0.0147,0.0156,0.0139,0.0104,0.0106,0.0083,0.0058,0.0053,0.0004,-0.0007,-0.0018,-0.0052,-0.0051,-0.0067,-0.0108,-0.0109,-0.0025,-0.0016,-0.0009,0.0027,-0.0094,0,0,0,0,0,0.0196,0.02,0.0174,0.0181,0.0176,0.0141,0.0132,0.0113,0.0088,0.0076,0.0042,0.0004,-0.0023,-0.0033,-0.0068,-0.0069,-0.009,-0.0064,-0.0056,-0.0049,-0.0028,-0.0033,-0.0023,-0.0136,-0.0136,-0.0136,0,0,0.0212,0.0199,0.0202,0.0188,0.017,0.0183,0.0135,0.0132,0.0147,0.0071,0.0077,0.0027,-0.0021,-0.0027,-0.0034,-0.0048,-0.0032,-0.0048,-0.0042,-0.0024,-0.0031,-0.002,-0.001,-0.0135,-0.0135,-0.0135,0,0,0.0255,0.0234,0.0256,0.0246,0.0229,0.0215,0.022,0.0191,0.0183,0.0175,0.0125,0.0097,0.0053,0.0031,0.0012,0.0042,0.0003,0.0023,0.0103,0.0098,0.0108,0.0117,0.0097,0.0103,0.0035,0.0036,0.0036,0,0.0276,0.0296,0.0261,0.0279,0.0288,0.0238,0.0274,0.0259,0.0228,0.0238,0.0191,0.0142,0.0085,0.0103,0.0099,0.0064,0.0049,0.0077,0.0112,0.012,0.0127,0.0105,0.011,0.0041,0.004,0.004,0.0039,0,0.0333,0.0348,0.0362,0.0372,0.0378,0.0397,0.0379,0.0384,0.036,0.0343,0.0342,0.0265,0.0246,0.021,0.0157,0.0185,0.0153,0.0119,0.0099,0.0146,0.0118,0.0122,0.0049,0.0047,0.0045,0.0044,0,0,0.0392,0.0404,0.041,0.0445,0.0432,0.0458,0.0482,0.0509,0.056,0.0493,0.0557,0.046,0.0419,0.0394,0.0329,0.0306,0.0314,0.0239,0.0236,0.0237,0.03,0.0265,0.0265,0.0293,0.0294,0.0296,0.0259,0,0.0454,0.0522,0.0505,0.0586,0.063,0.0603,0.065,0.0662,0.0654,0.0698,0.0619,0.064,0.0494,0.0503,0.045,0.0364,0.033,0.0327,0.0238,0.0236,0.0214,0.027,0.0244,0.0209,0.0262,0.0263,0.0263,0,0.0522,0.0564,0.0655,0.0729,0.0749,0.0794,0.0882,0.0915,0.094,0.0937,0.0918,0.0862,0.0824,0.0698,0.0566,0.0574,0.0445,0.0354,0.035,0.0287,0.0208,0.0169,0.0213,-0.0022,0.0268,0.0268,0.0267,0,0.0611,0.0677,0.0767,0.0784,0.0852,0.091,0.0957,0.0997,0.1074,0.1111,0.1178,0.1085,0.1088,0.0918,0.0694,0.0647,0.0551,0.0467,0.0309,0.0304,0.0249,0.0238,0.0075,0.0377,0.0377,0.0377,0.0377,0,0.0694,0.0768,0.0826,0.0878,0.1022,0.1028,0.1187,0.121,0.1299,0.1437,0.1326,0.1422,0.1145,0.1046,0.08,0.0581,0.0632,0.0344,0.0306,0.0284,0.0277,0.0041,-0.0097,0.0375,0.0376,0.0376,0.0376,0,0.0786,0.0809,0.093,0.1026,0.1069,0.1183,0.1344,0.147,0.1521,0.1707,0.1742,0.1694,0.1574,0.1278,0.1018,0.0752,0.0386,0.0428,0.0411,0.0371,-0.0013,-0.0143,-0.0342,-0.0439,0.0258,0.0258,0.0257,0,0.0846,0.0914,0.1049,0.1146,0.1202,0.1363,0.1496,0.1579,0.1719,0.1896,0.2012,0.1957,0.1962,0.1555,0.1072,0.0658,0.0396,0.0339,0.0229,-0.0015,-0.0188,-0.0289,-0.0362,0.019,0.0189,0.0188,0.0187,0,0.0977,0.102,0.1126,0.1306,0.1461,0.1635,0.1818,0.1956,0.2098,0.2258,0.2446,0.2476,0.2104,0.1673,0.1076,0.0767,0.0168,0.0306,0.0065,-0.0235,-0.0365,-0.0481,0.0178,0.0178,0.0179,0.0179,0.018,0.018,0.1091,0.1188,0.1321,0.1494,0.1668,0.1879,0.2047,0.2248,0.2487,0.2729,0.275,0.2821,0.2178,0.1374,0.0948,0.0094,0.011,-0.0181,-0.0311,-0.0384,-0.0499,0.0139,0.0087,0.0088,0.0088,0.0088,0.0088,0,0.1222,0.1321,0.1498,0.1704,0.19,0.1961,0.2248,0.2425,0.2708,0.2917,0.3072,0.2754,0.201,0.1221,0.0084,-0.0443,-0.0638,-0.0729,-0.0894,-0.0935,-0.0356,-0.0382,-0.0551,-0.055,-0.055,-0.055,-0.055,-0.0549,0.1305,0.147,0.1542,0.1853,0.2006,0.2275,0.2439,0.2694,0.2879,0.309,0.3084,0.3058,0.2361,0.0485,-0.0757,-0.1016,-0.1368,-0.1463,-0.1601,-0.1245,-0.1204,-0.1166,-0.1222,-0.1564,-0.1566,-0.2124,-0.213,-0.2135]}],[{"header":{"parameterUnit":"m.s-1","parameterCategory":2,"la1":30.2991,"la2":30.254,"lo1":-89.0895,"lo2":-89.0444,"dy":0.0017,"dx":0.0017,"nx":28,"ny":28,"refTime":"2025-06-22T03:00:00:Z","depth":"2","parameterNumber":2,"parameterNumberName":"U-component_of_CURRENTS"},"data":[0,0,0,0,0,0,0,0,0,0,0,0,0,0,0,0,0,0,0,0,0,0,0,0,0,0,0,0,0,0,0,0,0,0,0,0,0,0,0,0,0,0,0,0,0,0,0,0,0,0,0,0,0,0,0,0,0,0,0.3138,0.3139,0,0.3223,0.3224,0.3225,0.3272,0.3272,0.3272,0.3272,0.3314,0.3315,0.3316,0,0,0,0,0,0,0,0,0,0,0,0,0,0.3061,0.3062,0.3138,0.3139,0.3139,0.3222,0.3224,0.3225,0.3272,0.3272,0.3272,0.3272,0.3313,0.3315,0.3316,0,0,0,0,0,0,0,0,0,0,0,0,0,0.3118,0.3063,0.3138,0.3171,0.3174,0.3222,0.3224,0.3226,0.3272,0.3272,0.3272,0.3272,0.3313,0.3314,0.3316,0.3331,0,0,0.3322,0.3323,0,0,0,0,0,0,0,0,0.3114,0.3121,0.3165,0.3169,0.3173,0.3234,0.3212,0.3258,0.3272,0.3238,0.3272,0.3272,0.3281,0.3286,0.3307,0.3333,0.3335,0.3322,0.3323,0.3324,0.3324,0,0,0,0,0,0,0,0.311,0.3118,0.3174,0.3166,0.3171,0.3196,0.3204,0.3222,0.3261,0.3241,0.3244,0.3249,0.3283,0.3305,0.3308,0.3336,0.3322,0.3324,0.3325,0.3325,0.3444,0.3446,0,0,0,0,0,0,0.3092,0.3114,0.3172,0.3177,0.3139,0.3197,0.3206,0.3217,0.3262,0.3268,0.3249,0.3251,0.3302,0.3306,0.3309,0.3382,0.3324,0.3326,0.3327,0.3442,0.3445,0.3447,0,0,0,0,0,0,0.309,0.3097,0.3168,0.3144,0.3155,0.3198,0.321,0.3219,0.3258,0.3268,0.3274,0.3281,0.3302,0.3307,0.3342,0.3381,0.3326,0.3328,0.344,0.3443,0.3446,0.3493,0,0,0,0,0,0,0.3088,0.3096,0.311,0.3143,0.3155,0.3204,0.3211,0.322,0.3258,0.3262,0.3297,0.33,0.3302,0.334,0.3344,0.3383,0.333,0.3437,0.3441,0.3445,0.3488,0.3497,0.3504,0,0,0,0,0,0.3085,0.311,0.311,0.3118,0.3169,0.3204,0.3214,0.3246,0.326,0.3281,0.3307,0.33,0.3368,0.3343,0.3347,0.3388,0.3435,0.344,0.3445,0.3485,0.3495,0.3504,0,0,0,0,0,0,0.3083,0.3117,0.3119,0.3151,0.3174,0.3211,0.3244,0.3258,0.3298,0.3302,0.3318,0.3323,0.3372,0.3375,0.3347,0.3436,0.3404,0.341,0.3433,0.3443,0.3451,0.3464,0.3331,0,0,0,0,0,0.3086,0.3115,0.3138,0.3163,0.3182,0.3214,0.3238,0.3248,0.328,0.33,0.3332,0.3363,0.3395,0.3413,0.3438,0.348,0.3508,0.3513,0.3521,0.3527,0.3544,0.3624,0.3641,0.3462,0.3462,0.3462,0,0,0.3085,0.3113,0.3125,0.3165,0.3194,0.3227,0.3231,0.3263,0.3296,0.3295,0.337,0.339,0.3412,0.3464,0.3487,0.3471,0.3593,0.3533,0.3539,0.3552,0.3631,0.3648,0.3664,0.3465,0.3465,0.3464,0,0,0.3104,0.3132,0.3161,0.3191,0.3227,0.3244,0.3256,0.3302,0.3334,0.3372,0.3401,0.3443,0.3486,0.3526,0.3544,0.361,0.3631,0.3627,0.3678,0.3755,0.3771,0.3784,0.3839,0.3857,0.3631,0.3631,0.3631,0,0.3104,0.3139,0.3173,0.3216,0.3245,0.3256,0.3289,0.3326,0.3377,0.3417,0.3394,0.3509,0.3514,0.3608,0.3629,0.3628,0.3675,0.3635,0.3766,0.378,0.3793,0.3845,0.3865,0.3634,0.3634,0.3634,0.3633,0,0.3139,0.3174,0.3202,0.3256,0.3296,0.332,0.3365,0.3412,0.3434,0.3468,0.3557,0.3578,0.3652,0.3661,0.3656,0.3776,0.3779,0.3764,0.3738,0.3814,0.3864,0.3884,0.3638,0.3637,0.3636,0.3636,0,0,0.3111,0.3203,0.3212,0.3247,0.3313,0.3346,0.3418,0.3483,0.355,0.3586,0.3687,0.3726,0.3757,0.3783,0.3809,0.3864,0.3977,0.3861,0.3864,0.3909,0.4156,0.406,0.4072,0.3998,0.4002,0.4005,0.4151,0,0.3119,0.3189,0.3241,0.3309,0.3348,0.3407,0.348,0.3548,0.3602,0.3708,0.375,0.3843,0.3803,0.3854,0.3907,0.3977,0.4034,0.3939,0.4081,0.4085,0.3986,0.4093,0.3782,0.3878,0.417,0.4173,0.4175,0,0.3122,0.3176,0.3238,0.3343,0.3371,0.3421,0.3546,0.3619,0.3759,0.381,0.3909,0.396,0.408,0.4017,0.4167,0.4119,0.4146,0.4171,0.4177,0.4087,0.4026,0.3852,0.3903,0.4208,0.4205,0.4203,0.4201,0,0.3074,0.317,0.3217,0.3253,0.3375,0.3435,0.3513,0.365,0.3736,0.391,0.3991,0.4116,0.421,0.4269,0.4309,0.4267,0.4456,0.4398,0.4335,0.4328,0.4089,0.4054,0.4499,0.4499,0.4499,0.4498,0.4498,0,0.3057,0.3098,0.32,0.3237,0.3322,0.3427,0.3552,0.3649,0.3811,0.3935,0.406,0.4161,0.4283,0.439,0.439,0.4435,0.4526,0.4375,0.4374,0.4095,0.406,0.4359,0.434,0.4504,0.4503,0.4501,0.4501,0,0.3005,0.306,0.3127,0.3255,0.3303,0.3376,0.3566,0.365,0.3823,0.3999,0.4068,0.425,0.4392,0.4483,0.4601,0.4544,0.4583,0.4566,0.4221,0.4176,0.4381,0.4364,0.4524,0.4522,0.4521,0.4519,0.4518,0,0.2989,0.3013,0.3134,0.318,0.3243,0.3372,0.3455,0.3633,0.3725,0.4022,0.4081,0.4305,0.4391,0.4537,0.4516,0.4543,0.4596,0.4244,0.4088,0.4409,0.4392,0.4377,0.4362,0.3793,0.3786,0.378,0.3775,0,0.2967,0.2998,0.3059,0.314,0.3219,0.3337,0.3472,0.3509,0.3736,0.3855,0.4012,0.4116,0.4321,0.42,0.4271,0.4224,0.4213,0.4128,0.4597,0.3825,0.3728,0.3708,0.3716,0.3725,0.373,0.3734,0.3736,0.3738,0.2958,0.2964,0.3025,0.3094,0.3162,0.3232,0.3257,0.3384,0.3463,0.3573,0.3775,0.3821,0.3931,0.385,0.3763,0.3723,0.3982,0.3793,0.3807,0.3828,0.3708,0.3613,0.3566,0.3569,0.3573,0.3576,0.3579,0,0.2906,0.2926,0.2981,0.2999,0.2974,0.3113,0.3198,0.3162,0.3133,0.3311,0.3387,0.3176,0.3142,0.3263,0.3133,0.3147,0.3083,0.3019,0.2901,0.2957,0.3005,0.2837,0.2467,0.2463,0.2459,0.2455,0,0,0.2885,0.2867,0.2862,0.2785,0.28,0.2741,0.2749,0.2728,0.2794,0.2732,0.274,0.298,0.3166,0.2747,0.273,0.2575,0.273,0.2485,0.3392,0.3309,0.3351,0.3487,0.3298,0,0,0,0,0]},{"header":{"parameterUnit":"m.s-1","parameterCategory":2,"la1":30.2991,"la2":30.254,"lo1":-89.0895,"lo2":-89.0444,"dy":0.0017,"dx":0.0017,"nx":28,"ny":28,"refTime":"2025-06-22T03:00:00:Z","depth":"2","parameterNumber":3,"parameterNumberName":"V-component_of_CURRENTS"},"data":[0,0,0,0,0,0,0,0,0,0,0,0,0,0,0,0,0,0,0,0,0,0,0,0,0,0,0,0,0,0,0,0,0,0,0,0,0,0,0,0,0,0,0,0,0,0,0,0,0,0,0,0,0,0,0,0,0,0,0.0029,0.0029,0,-0.0028,-0.0029,-0.003,-0.0077,-0.0077,-0.0077,-0.0077,-0.0164,-0.0166,-0.0169,0,0,0,0,0,0,0,0,0,0,0,0,0,0.0034,0.0035,0.0029,0.0028,0.0028,-0.0028,-0.0029,-0.0031,-0.0077,-0.0077,-0.0077,-0.0078,-0.0164,-0.0166,-0.0169,0,0,0,0,0,0,0,0,0,0,0,0,0,0.0007,0.0035,0.0029,0.0,-0.0003,-0.0028,-0.0029,-0.0031,-0.0077,-0.0077,-0.0077,-0.0078,-0.0163,-0.0166,-0.0169,-0.0183,0,0,-0.0179,-0.018,0,0,0,0,0,0,0,0,0.0009,0.0007,0.0005,0.0002,-0.0001,-0.0043,-0.0059,-0.0082,-0.0077,-0.0052,-0.0077,-0.0078,-0.0124,-0.0131,-0.0145,-0.0187,-0.019,-0.0179,-0.0181,-0.0182,-0.0183,0,0,0,0,0,0,0,0.0011,0.0009,0.0003,0.0005,0.0001,-0.0031,-0.0035,-0.0064,-0.0088,-0.0054,-0.0057,-0.0058,-0.0127,-0.0142,-0.0147,-0.0192,-0.0179,-0.0182,-0.0184,-0.0185,-0.0239,-0.0238,0,0,0,0,0,0,0.0028,0.0011,0.0005,0.0002,0.0007,-0.0031,-0.0035,-0.0032,-0.0088,-0.0095,-0.0058,-0.006,-0.0136,-0.0143,-0.015,-0.0142,-0.0182,-0.0185,-0.0187,-0.0239,-0.0238,-0.0238,0,0,0,0,0,0,0.0028,0.0028,0.0007,0.0007,0.0002,-0.003,-0.0026,-0.0033,-0.0043,-0.009,-0.0099,-0.006,-0.0136,-0.0146,-0.0161,-0.0147,-0.0187,-0.019,-0.024,-0.0239,-0.0238,-0.0144,0,0,0,0,0,0,0.0029,0.0029,0.0034,0.0008,0.0003,0.0006,-0.0026,-0.0033,-0.0042,-0.0045,-0.0094,-0.0103,-0.0137,-0.0156,-0.0164,-0.0152,-0.0192,-0.024,-0.0239,-0.0238,-0.0147,-0.014,-0.0133,0,0,0,0,0,0.0029,0.0047,0.0034,0.0033,0.0012,0.0007,0.0001,-0.0026,-0.0041,-0.0038,-0.0068,-0.0101,-0.0157,-0.0158,-0.0168,-0.0156,-0.0241,-0.024,-0.0238,-0.0151,-0.0141,-0.0133,0,0,0,0,0,0,0.0055,0.0043,0.0029,0.0042,0.003,0.0,0.0001,-0.0018,-0.004,-0.0045,-0.0092,-0.0102,-0.0113,-0.0147,-0.0147,-0.017,-0.0206,-0.0207,-0.0136,-0.0127,-0.012,-0.0101,-0.0195,0,0,0,0,0,0.0063,0.007,0.0053,0.0063,0.006,0.003,0.0023,0.0007,-0.0014,-0.0025,-0.0058,-0.0094,-0.0117,-0.013,-0.0161,-0.017,-0.0209,-0.0171,-0.0164,-0.0158,-0.0149,-0.0189,-0.0185,-0.0234,-0.0234,-0.0234,0,0,0.0076,0.007,0.0073,0.0068,0.0052,0.0065,0.0024,0.0023,0.0034,-0.0031,-0.0031,-0.007,-0.0115,-0.0123,-0.0132,-0.0148,-0.0165,-0.0156,-0.015,-0.0146,-0.0188,-0.0183,-0.0179,-0.0233,-0.0234,-0.0234,0,0,0.0113,0.01,0.012,0.0114,0.0103,0.0091,0.0096,0.0073,0.0062,0.0055,0.0014,-0.0012,-0.0053,-0.0077,-0.0096,-0.0069,-0.0127,-0.0083,-0.003,-0.0068,-0.0064,-0.0061,-0.0105,-0.0107,-0.0078,-0.0078,-0.0078,0,0.0128,0.0152,0.0125,0.0143,0.015,0.0111,0.0141,0.0125,0.01,0.0099,0.0068,0.0014,-0.0029,-0.0031,-0.0026,-0.0052,-0.0086,-0.0054,-0.0057,-0.0055,-0.0054,-0.01,-0.0103,-0.0073,-0.0074,-0.0074,-0.0075,0,0.0179,0.0197,0.021,0.0222,0.0225,0.0243,0.0227,0.0226,0.0204,0.0184,0.0168,0.0107,0.0077,0.0055,0.0021,0.0017,-0.0015,-0.0043,-0.0074,-0.0043,-0.0094,-0.0099,-0.0067,-0.0068,-0.007,-0.0071,0,0,0.0223,0.0244,0.0249,0.0276,0.0271,0.029,0.0305,0.0317,0.034,0.0287,0.0309,0.0243,0.02,0.0176,0.0125,0.0086,0.0059,0.0032,0.0028,-0.0002,-0.003,-0.0073,-0.0083,0.0032,0.0032,0.0031,-0.007,0,0.0275,0.0335,0.0328,0.0393,0.0427,0.0403,0.0429,0.0427,0.0411,0.0419,0.0346,0.0339,0.0251,0.0243,0.0188,0.0101,0.005,0.0088,-0.0064,-0.0068,-0.0103,-0.0089,-0.0048,-0.0136,-0.0075,-0.0076,-0.0076,0,0.033,0.0367,0.044,0.0494,0.0508,0.0538,0.0581,0.0603,0.059,0.0575,0.0538,0.0476,0.042,0.0339,0.0189,0.0219,0.0101,0.0017,0.0011,-0.0065,-0.012,-0.0159,-0.0148,-0.0085,-0.0084,-0.0084,-0.0083,0,0.0388,0.0451,0.0519,0.0534,0.0581,0.0614,0.0645,0.065,0.0693,0.0683,0.0707,0.0603,0.0581,0.0418,0.0227,0.0211,0.0056,0.0011,-0.0144,-0.0149,-0.0162,-0.0167,-0.0104,-0.0104,-0.0104,-0.0104,-0.0103,0,0.045,0.0506,0.0556,0.0592,0.0689,0.0693,0.0791,0.0797,0.0831,0.0902,0.0802,0.0817,0.0601,0.0478,0.0277,0.0058,0.0087,-0.0132,-0.0175,-0.0129,-0.0131,-0.0125,-0.0126,-0.0107,-0.0107,-0.0106,-0.0105,0,0.0503,0.0529,0.0614,0.0683,0.0718,0.079,0.09,0.0965,0.0987,0.1079,0.1086,0.099,0.0831,0.0595,0.034,0.0144,-0.0076,-0.0168,-0.0104,-0.0138,-0.0272,-0.0267,-0.0349,-0.0351,-0.0353,-0.0355,-0.0356,0,0.0535,0.0582,0.0687,0.0751,0.0789,0.0902,0.0982,0.1038,0.1122,0.1181,0.1232,0.1113,0.1036,0.0646,0.0291,-0.0058,-0.0099,-0.026,-0.0294,-0.0262,-0.0296,-0.0288,-0.0281,-0.0278,-0.0278,-0.0279,-0.0279,0,0.0592,0.0624,0.0699,0.083,0.0927,0.1056,0.1178,0.1268,0.1351,0.1414,0.1457,0.1397,0.1055,0.0707,0.024,-0.0003,-0.0203,-0.0284,-0.0254,-0.0222,-0.0203,-0.0234,-0.0227,-0.0283,-0.0283,-0.0283,-0.0282,-0.0282,0.0635,0.0692,0.0785,0.0918,0.103,0.1177,0.1291,0.1436,0.1568,0.1676,0.1601,0.1543,0.1165,0.0572,0.0161,-0.0249,-0.0243,-0.0392,-0.0387,-0.0382,-0.0355,-0.0341,-0.0443,-0.0443,-0.0443,-0.0444,-0.0444,0,0.068,0.0752,0.0867,0.1006,0.1126,0.1193,0.1396,0.1511,0.1678,0.1784,0.1802,0.1433,0.105,0.0639,0.0031,-0.036,-0.0376,-0.0478,-0.0402,-0.0395,-0.0389,-0.0361,-0.0452,-0.0453,-0.0454,-0.0454,0,0,0.0703,0.0806,0.0864,0.1053,0.1159,0.1321,0.1441,0.1619,0.1753,0.1843,0.1836,0.1727,0.1221,0.0777,0.0253,-0.0083,-0.0149,-0.0158,-0.0112,0.0046,0.0057,-0.0304,-0.0249,0,0,0,0,0]}],[{"header":{"parameterUnit":"m.s-1","parameterCategory":2,"la1":30.2991,"la2":30.254,"lo1":-89.0895,"lo2":-89.0444,"dy":0.0017,"dx":0.0017,"nx":28,"ny":28,"refTime":"2025-06-22T03:00:00:Z","depth":"4","parameterNumber":2,"parameterNumberName":"U-component_of_CURRENTS"},"data":[0,0,0,0,0,0,0,0,0,0,0,0,0,0,0,0,0,0,0,0,0,0,0,0,0,0,0,0,0,0,0,0,0,0,0,0,0,0,0,0,0,0,0,0,0,0,0,0,0,0,0,0,0,0,0,0,0,0,0.1954,0.1955,0,0.2013,0.2013,0.2013,0.2066,0.2067,0.2068,0.2069,0.2115,0.2115,0.2115,0,0,0,0,0,0,0,0,0,0,0,0,0,0.185,0.1851,0.1954,0.1955,0.1956,0.2013,0.2013,0.2013,0.2066,0.2067,0.2068,0.207,0.2115,0.2115,0.2115,0,0,0,0,0,0,0,0,0,0,0,0,0,0.1896,0.1852,0.1954,0.1993,0.1997,0.2013,0.2013,0.2014,0.2065,0.2067,0.2069,0.207,0.2115,0.2115,0.2115,0.2085,0,0,0.2116,0.2117,0,0,0,0,0,0,0,0,0.1893,0.1899,0.1986,0.199,0.1995,0.2038,0.1994,0.2039,0.2065,0.2034,0.2069,0.2071,0.209,0.2093,0.2093,0.2087,0.2089,0.2116,0.2117,0.2117,0.2117,0,0,0,0,0,0,0,0.189,0.1897,0.1972,0.1987,0.1993,0.1995,0.2003,0.2002,0.2048,0.2037,0.2042,0.2056,0.2092,0.2093,0.2095,0.209,0.2116,0.2117,0.2117,0.2117,0.2254,0.2257,0,0,0,0,0,0,0.1893,0.1894,0.1971,0.1975,0.1953,0.1996,0.2005,0.2019,0.2049,0.2056,0.2055,0.2059,0.2091,0.2094,0.2096,0.2206,0.2117,0.2117,0.2117,0.225,0.2254,0.2258,0,0,0,0,0,0,0.1891,0.1899,0.1968,0.1939,0.1949,0.1997,0.2011,0.2019,0.207,0.2063,0.207,0.2105,0.2093,0.2096,0.2164,0.2203,0.2117,0.2118,0.2246,0.2251,0.2256,0.2333,0,0,0,0,0,0,0.1887,0.1898,0.1924,0.194,0.1951,0.2009,0.2011,0.2019,0.2076,0.2082,0.2107,0.211,0.2094,0.2164,0.2164,0.2202,0.2118,0.2242,0.2248,0.2255,0.2326,0.234,0.2352,0,0,0,0,0,0.1883,0.1903,0.1924,0.1935,0.198,0.2011,0.2017,0.2052,0.2077,0.2103,0.2145,0.2112,0.2205,0.2167,0.2166,0.2205,0.2239,0.2247,0.2254,0.232,0.2337,0.2352,0,0,0,0,0,0,0.1869,0.1911,0.1935,0.1968,0.2006,0.2022,0.2053,0.208,0.213,0.2153,0.2149,0.2155,0.223,0.2218,0.2176,0.227,0.2218,0.2226,0.2269,0.2285,0.2297,0.2312,0.2118,0,0,0,0,0,0.1878,0.191,0.1948,0.198,0.2002,0.2039,0.2064,0.2093,0.2131,0.2157,0.2176,0.2211,0.2251,0.2272,0.2294,0.2336,0.2341,0.2368,0.2381,0.2391,0.2409,0.247,0.249,0.2283,0.2283,0.2283,0,0,0.1883,0.1912,0.1932,0.1981,0.2012,0.205,0.2058,0.2111,0.216,0.2151,0.2229,0.2256,0.2278,0.2337,0.2368,0.2335,0.2454,0.2401,0.2409,0.2421,0.248,0.25,0.2518,0.2289,0.2288,0.2287,0,0,0.1893,0.1936,0.1964,0.2001,0.2063,0.2087,0.2117,0.2164,0.2208,0.228,0.2301,0.2366,0.2405,0.2434,0.2453,0.2554,0.2525,0.2564,0.263,0.269,0.2707,0.2722,0.2746,0.2763,0.2563,0.2563,0.2564,0,0.1902,0.1943,0.1978,0.2016,0.2058,0.2112,0.2158,0.2203,0.2272,0.232,0.2324,0.2442,0.2452,0.2542,0.2585,0.258,0.2603,0.2559,0.2705,0.2719,0.2733,0.2755,0.2772,0.2568,0.2568,0.2567,0.2567,0,0.1919,0.1975,0.1997,0.2066,0.2113,0.2164,0.2232,0.2297,0.236,0.2404,0.2521,0.2554,0.2626,0.2641,0.2644,0.2755,0.2736,0.2714,0.2655,0.2758,0.2775,0.2791,0.2575,0.2573,0.2572,0.2571,0,0,0.1886,0.199,0.2005,0.2055,0.2152,0.2188,0.2288,0.2385,0.2465,0.254,0.2638,0.2724,0.2757,0.2785,0.28,0.2852,0.2962,0.2836,0.2837,0.2843,0.3086,0.2887,0.2884,0.297,0.2974,0.2977,0.3054,0,0.1899,0.1975,0.2031,0.2124,0.2173,0.2264,0.2348,0.2448,0.2539,0.264,0.2716,0.2811,0.2808,0.2859,0.2918,0.2959,0.3012,0.2942,0.3001,0.3003,0.2798,0.2899,0.2988,0.3066,0.307,0.3072,0.3074,0,0.1898,0.1956,0.2043,0.217,0.2202,0.2271,0.2428,0.2507,0.266,0.2737,0.2852,0.291,0.3028,0.2997,0.3128,0.3089,0.311,0.3122,0.3125,0.2924,0.2833,0.2947,0.3103,0.3101,0.3099,0.3097,0.3095,0,0.1842,0.1967,0.2042,0.2084,0.2226,0.2305,0.2392,0.2545,0.2629,0.281,0.2887,0.3027,0.3105,0.3176,0.3221,0.3197,0.3332,0.3288,0.3125,0.3109,0.3228,0.3211,0.3382,0.3382,0.3382,0.3382,0.3382,0,0.1814,0.1881,0.2033,0.2067,0.2174,0.2289,0.2412,0.2528,0.2689,0.2779,0.2934,0.3015,0.3161,0.3245,0.3269,0.3245,0.3377,0.3157,0.3128,0.3258,0.3244,0.3238,0.322,0.3385,0.3384,0.3383,0.3383,0,0.1733,0.1831,0.1924,0.2088,0.2146,0.2223,0.2401,0.2475,0.2658,0.2782,0.2848,0.3044,0.3149,0.3249,0.3357,0.3276,0.3287,0.3243,0.338,0.3354,0.301,0.2996,0.3065,0.3059,0.3054,0.3049,0.3046,0,0.1692,0.1732,0.1908,0.1957,0.2038,0.2167,0.2239,0.2438,0.2516,0.2764,0.2801,0.2983,0.3084,0.3074,0.3199,0.3231,0.3195,0.3176,0.3093,0.3019,0.2985,0.2979,0.2972,0.3037,0.3036,0.3035,0.3033,0,0.1611,0.169,0.1756,0.1848,0.1939,0.2024,0.2154,0.2201,0.2415,0.2605,0.2694,0.2764,0.2868,0.2947,0.2996,0.3013,0.3177,0.3121,0.3131,0.3052,0.2986,0.2956,0.2955,0.3015,0.3018,0.3019,0.302,0,0.1546,0.1567,0.165,0.172,0.1816,0.1851,0.1942,0.2036,0.2142,0.2428,0.245,0.2644,0.2827,0.2835,0.2884,0.2886,0.284,0.2745,0.2774,0.2795,0.2673,0.2547,0.2434,0,0,0,0,0,0.1464,0.1461,0.1511,0.1567,0.1649,0.1707,0.1865,0.1962,0.2184,0.2179,0.2313,0.24,0.2486,0.2596,0.2545,0.2765,0.2847,0.2693,0.275,0.2915,0.2936,0.2818,0,0,0,0,0,0,0.1403,0.1436,0.1455,0.1423,0.1432,0.1499,0.1595,0.1743,0.1764,0.2004,0.2064,0.2249,0.2367,0.2479,0.2493,0.2526,0.2512,0.2827,0.2821,0.2903,0.2922,0.2939,0.2825,0,0,0,0,0]},{"header":{"parameterUnit":"m.s-1","parameterCategory":2,"la1":30.2991,"la2":30.254,"lo1":-89.0895,"lo2":-89.0444,"dy":0.0017,"dx":0.0017,"nx":28,"ny":28,"refTime":"2025-06-22T03:00:00:Z","depth":"4","parameterNumber":3,"parameterNumberName":"V-component_of_CURRENTS"},"data":[0,0,0,0,0,0,0,0,0,0,0,0,0,0,0,0,0,0,0,0,0,0,0,0,0,0,0,0,0,0,0,0,0,0,0,0,0,0,0,0,0,0,0,0,0,0,0,0,0,0,0,0,0,0,0,0,0,0,0.0047,0.0047,0,0.0014,0.0014,0.0013,-0.0018,-0.0018,-0.0019,-0.0019,-0.0076,-0.0078,-0.0079,0,0,0,0,0,0,0,0,0,0,0,0,0,0.004,0.004,0.0047,0.0047,0.0047,0.0015,0.0014,0.0013,-0.0018,-0.0018,-0.0019,-0.0019,-0.0076,-0.0077,-0.0079,0,0,0,0,0,0,0,0,0,0,0,0,0,0.0027,0.0041,0.0047,0.0028,0.0026,0.0015,0.0014,0.0013,-0.0018,-0.0018,-0.0019,-0.0019,-0.0075,-0.0077,-0.0079,-0.0083,0,0,-0.0085,-0.0086,0,0,0,0,0,0,0,0,0.0028,0.0028,0.0031,0.003,0.0027,0.0003,-0.001,-0.002,-0.0018,-0.0003,-0.0019,-0.0019,-0.0051,-0.0055,-0.0062,-0.0086,-0.0088,-0.0085,-0.0086,-0.0087,-0.0088,0,0,0,0,0,0,0,0.0029,0.0029,0.0033,0.0031,0.0029,0.0007,0.0005,-0.0012,-0.0026,-0.0004,-0.0006,-0.0007,-0.0052,-0.006,-0.0063,-0.0089,-0.0085,-0.0087,-0.0088,-0.0089,-0.0133,-0.0133,0,0,0,0,0,0,0.0039,0.003,0.0034,0.0032,0.0029,0.0008,0.0005,0.001,-0.0025,-0.003,-0.0007,-0.0008,-0.0056,-0.0061,-0.0066,-0.0063,-0.0087,-0.0089,-0.009,-0.0133,-0.0133,-0.0133,0,0,0,0,0,0,0.0039,0.004,0.0035,0.0031,0.0029,0.0009,0.0014,0.001,0.0004,-0.0027,-0.0033,-0.0008,-0.0057,-0.0063,-0.0076,-0.0066,-0.009,-0.0092,-0.0133,-0.0133,-0.0133,-0.0064,0,0,0,0,0,0,0.0039,0.004,0.0045,0.0032,0.0029,0.0036,0.0014,0.0009,0.0004,0.0002,-0.0029,-0.0035,-0.0058,-0.0073,-0.0078,-0.0069,-0.0093,-0.0133,-0.0133,-0.0133,-0.0067,-0.0062,-0.0058,0,0,0,0,0,0.0039,0.0054,0.0046,0.0046,0.0038,0.0037,0.0034,0.0016,0.0005,0.0008,-0.0015,-0.0034,-0.0077,-0.0074,-0.008,-0.0072,-0.0133,-0.0133,-0.0133,-0.0069,-0.0063,-0.0058,0,0,0,0,0,0,0.0056,0.0052,0.0043,0.0056,0.0049,0.0032,0.0034,0.0021,0.0006,0.0002,-0.003,-0.0037,-0.0046,-0.0071,-0.0067,-0.0087,-0.0111,-0.0112,-0.0059,-0.0055,-0.005,-0.0043,-0.0095,0,0,0,0,0,0.0062,0.007,0.0061,0.007,0.007,0.0051,0.0048,0.0038,0.0023,0.0016,-0.0006,-0.0032,-0.0051,-0.0061,-0.0083,-0.0089,-0.0129,-0.0092,-0.0087,-0.0083,-0.0083,-0.0132,-0.0132,-0.0133,-0.0133,-0.0133,0,0,0.0071,0.0069,0.0074,0.0074,0.0065,0.0076,0.0048,0.0049,0.0056,0.0012,0.0012,-0.0016,-0.0051,-0.0058,-0.0066,-0.0076,-0.0105,-0.0084,-0.008,-0.0082,-0.0132,-0.0132,-0.0132,-0.0134,-0.0134,-0.0134,0,0,0.0097,0.0092,0.0108,0.0106,0.0101,0.0094,0.0098,0.0085,0.0076,0.0073,0.0041,0.0018,-0.0007,-0.0032,-0.0047,-0.0034,-0.008,-0.0042,-0.0011,-0.0059,-0.0059,-0.0059,-0.0109,-0.0115,-0.0039,-0.0039,-0.0039,0,0.0107,0.0127,0.0112,0.0126,0.0132,0.0108,0.0129,0.0119,0.0103,0.0097,0.0081,0.0032,0.0005,-0.0011,-0.0007,-0.0023,-0.006,-0.0023,-0.0052,-0.0053,-0.0055,-0.0106,-0.0114,-0.0036,-0.0036,-0.0036,-0.0037,0,0.0142,0.0158,0.0169,0.0181,0.0185,0.0199,0.0189,0.0187,0.0173,0.0157,0.0135,0.009,0.006,0.0047,0.0026,0.0003,-0.0022,-0.0039,-0.006,-0.0051,-0.0106,-0.0114,-0.0031,-0.0032,-0.0033,-0.0034,0,0,0.0168,0.0191,0.0195,0.0213,0.0217,0.0228,0.0239,0.0242,0.025,0.0215,0.0212,0.0168,0.0134,0.0113,0.0076,0.0033,-0.001,-0.0002,-0.0006,-0.0043,-0.0118,-0.012,-0.013,-0.003,-0.0031,-0.0032,-0.0151,0,0.0202,0.0247,0.0247,0.0291,0.0316,0.0302,0.0318,0.0312,0.0296,0.0285,0.0225,0.0208,0.0163,0.015,0.01,0.0022,-0.0029,0.0024,-0.013,-0.0134,-0.013,-0.0138,-0.0035,-0.0158,-0.016,-0.0161,-0.0162,0,0.0237,0.0265,0.0317,0.0353,0.0363,0.0384,0.0403,0.0416,0.0389,0.037,0.033,0.0282,0.0221,0.0179,0.004,0.0077,-0.0015,-0.0086,-0.0092,-0.0123,-0.0151,-0.0172,-0.0179,-0.0177,-0.0176,-0.0175,-0.0174,0,0.0266,0.0314,0.0362,0.0374,0.0409,0.0428,0.0447,0.044,0.046,0.0425,0.0422,0.0334,0.0295,0.0172,0.0032,0.0034,-0.0132,-0.0149,-0.0244,-0.0246,-0.0239,-0.0237,-0.026,-0.026,-0.0259,-0.0259,-0.0259,0,0.03,0.0337,0.0382,0.0406,0.0466,0.0473,0.052,0.0522,0.0528,0.0553,0.0472,0.0456,0.0291,0.0181,0.0044,-0.0122,-0.0127,-0.0244,-0.0277,-0.0208,-0.0201,-0.0245,-0.0242,-0.0263,-0.0262,-0.0262,-0.0261,0,0.0318,0.0347,0.0404,0.0456,0.0481,0.0523,0.0584,0.0616,0.0612,0.064,0.0635,0.0542,0.0398,0.0223,0.0016,-0.0097,-0.0261,-0.0324,-0.0238,-0.0263,-0.0351,-0.0343,-0.0442,-0.0443,-0.0444,-0.0445,-0.0445,0,0.0327,0.036,0.0441,0.0484,0.051,0.0575,0.0626,0.0657,0.0698,0.0693,0.0712,0.0588,0.05,0.0215,0.0017,-0.0254,-0.0293,-0.0385,-0.0371,-0.0348,-0.037,-0.036,-0.0351,-0.0447,-0.0447,-0.0447,-0.0447,0,0.0341,0.0371,0.0423,0.0516,0.0583,0.066,0.0734,0.0774,0.0813,0.0806,0.0777,0.0628,0.0459,0.0228,0.0014,-0.018,-0.0326,-0.0395,-0.0395,-0.0383,-0.0355,-0.0373,-0.0364,-0.045,-0.045,-0.045,-0.045,0,0.035,0.0388,0.0461,0.0549,0.0638,0.0728,0.076,0.0815,0.0859,0.0863,0.0845,0.0664,0.0556,0.0264,0.007,-0.0122,-0.0176,-0.024,-0.0248,-0.0248,-0.0156,-0.009,-0.0135,0,0,0,0,0,0.0358,0.0411,0.0487,0.0589,0.068,0.0738,0.0834,0.0861,0.0901,0.0898,0.088,0.0728,0.044,0.031,0.0118,0.0031,-0.0226,-0.0203,-0.0306,-0.0467,-0.0464,-0.0389,0,0,0,0,0,0,0.0362,0.0436,0.0488,0.0616,0.0688,0.0796,0.0861,0.0887,0.0887,0.0891,0.0746,0.0673,0.0393,0.0552,0.0113,0.0051,-0.0042,-0.0338,-0.0343,-0.0469,-0.0466,-0.0463,-0.0385,0,0,0,0,0]}]]